YZ-1 R/B, 41929

Orbit data source: Space-Track

YZ-1 R/B, 41929 is space debris in HEO originally from a launch on Mon, 30 Mar 2015 UTC launched from the Xichang Space Center, China (XSC). Debris objects in space refer to the collection of defunct objects orbiting the Earth. Examples of debris include non-operational satellites, rocket bodies, and fragments generated from explosions, collisions, or faulty payload assembly.

Loading next visibility...
Identifier
41929, 2015-019C
Orbit
HEO
Country
Flag of CNCN / PRC
Related business
Manufacturer
CALT
Mission
Spacecraft
Bus & Motor
YZ-1, Unknown motor
Mass
2,075 kg wet, 2,075 kg dry
Launch date (UTC)
2015-03-30 (11 years ago)
Launch vehicle
Unknown
Launch site
Xichang Space Center, China (XSC)
Object type
Payload
Rocket body
Debris
Shape & HBR
Double Cone, 2.0 m
Radar Cross Section
5.890 m², Large (>1 m²)

Expand to show TLE details & history
Last TLE update: 2 hours ago

TLE from 2 hours ago
0 YZ-1 R/B
1 41929U 15019C   25306.31525019 -.00000850  00000-0  00000-0 0  9997
2 41929  10.1549 129.2687 6649586 272.9709   0.0487  0.27915543 10143
Epoch: 2025-11-02T07:33Z
TLE epoch observation values (Epoch: 2025-11-02T07:33:57.616Z)
Latitude
-10.10377°
Longitude
-113.26864°
Altitude
25,973.278 km
Speed
4.54 km/s
True Right ascension
02h 48m 13s
True Declination
-10° 05' 27"
Sunlit
Object was in daylight at epoch
Visualization orbit readout
Latitude
Unknown
Longitude
Unknown
Altitude
Unknown
Speed
Unknown
Apparent Right ascension
Unknown
Apparent Declination
Unknown
Sunlit
N/A
Visualization observer readout
Local Sidereal Time
05:32:24
Azimuth
Unknown
Elevation
Unknown
Doppler factor
Unknown
Orbital elements
Apogee altitude
158,278.523 km
Perigee altitude
26,755.899 km
Semi-major axis
98,895.348 km
Eccentricity
0.66496
Inclination
10.1549°
RAAN
129.2687°
Arg. of periapsis
272.9709°
True anomaly
0.32403°
Mean anomaly
0.0487°
Eccentric anomaly
0.14535°
Mean motion
0.06979 °/min
Orbital period
5,158.5 mins
BSTAR
0
Loading maneuver chart data...
Computing Atmospheric mass density...
Loading historical data...
Loading historical data...
Loading historical data...
Loading historical data...
Loading historical data...
Loading historical data...
Loading historical data...
Other satellites on launch #19 in the year 2015 (2015-03-30 UTC)

Documentation

Showing up to 5 results
|